Bookmark and Share
Track history (hours):
 

Deva

Last reported at 2014-Apr-19 03:17 UTC. Time now 2014-Apr-20 08:52 UTC.
Position N 32°54' E 034°53'.

Length 259 m; draft 11.3 m.

Type: Ship (hazmat cat A). MMSI: 636013644.

NotesDate/timePositionNaut miles runAvg speedWind from/ knotsBaromVisibWave heightAir tempDewpointWater temp
2014-Apr-19 03:17N 32°54' E 034°53'912.3
2014-Apr-19 02:33N 32°56' E 034°43'1211.9
2014-Apr-19 01:33N 32°58' E 034°29'5211.8
2014-Apr-18 21:07N 33°34' E 033°44'812.5
2014-Apr-18 20:30N 33°41' E 033°39'4212.5
2014-Apr-18 17:09N 34°18' E 033°16'712.4
2014-Apr-18 16:33N 34°24' E 033°12'1312.7
2014-Apr-18 15:34N 34°36' E 033°05'5 4.5
2014-Apr-18 14:33N 34°39' E 033°01'0 0.0
2014-Apr-18 13:33N 34°39' E 033°01'0 0.0
2014-Apr-18 12:33N 34°39' E 033°01'0 0.0
2014-Apr-18 11:33N 34°39' E 033°01'0 0.0
2014-Apr-18 10:33N 34°39' E 033°01'0 0.0
2014-Apr-18 09:33N 34°39' E 033°01'0 0.0
2014-Apr-18 08:33N 34°39' E 033°01'0 0.0
2014-Apr-18 07:33N 34°39' E 033°01'0 0.0
2014-Apr-18 06:33N 34°39' E 033°01'0 0.0
2014-Apr-18 05:33N 34°39' E 033°01'0 0.0
2014-Apr-18 04:33N 34°39' E 033°01'0 0.4
2014-Apr-18 03:33N 34°39' E 033°01'2 2.1
2014-Apr-18 02:31N 34°40' E 033°04'0 0.1
2014-Apr-18 01:31N 34°40' E 033°04'0 0.2
2014-Apr-18 00:31N 34°40' E 033°04'0 0.0
2014-Apr-17 23:31N 34°40' E 033°04'0 0.0
2014-Apr-17 22:31N 34°40' E 033°04'0 0.0
2014-Apr-17 21:31N 34°40' E 033°04'0 0.1
2014-Apr-17 20:31N 34°40' E 033°04'0 0.0
2014-Apr-17 19:31N 34°40' E 033°04'0 0.0
2014-Apr-17 18:31N 34°40' E 033°04'0 0.0
2014-Apr-17 17:31N 34°40' E 033°04'0 0.0
2014-Apr-17 16:31N 34°40' E 033°04'2 1.6
2014-Apr-17 15:33N 34°39' E 033°05'1010.2
2014-Apr-17 14:33N 34°29' E 033°03'1312.5
2014-Apr-17 13:33N 34°19' E 032°54'1211.7
2014-Apr-17 12:32N 34°10' E 032°45'2 2.0
2014-Apr-17 11:31N 34°12' E 032°43'2 1.7
2014-Apr-17 10:31N 34°13' E 032°42'2 1.6
2014-Apr-17 09:31N 34°15' E 032°41'1 1.5
2014-Apr-17 08:31N 34°16' E 032°41'1 1.4
2014-Apr-17 07:31N 34°17' E 032°40'1 1.2
2014-Apr-17 06:31N 34°18' E 032°40'1 0.9
2014-Apr-17 05:31N 34°19' E 032°39'1 0.9
2014-Apr-17 04:31N 34°20' E 032°39'1 0.8
2014-Apr-17 03:31N 34°21' E 032°39'1 0.7
2014-Apr-17 02:31N 34°22' E 032°39'1 0.6
2014-Apr-17 01:31N 34°22' E 032°39'1 0.5
2014-Apr-17 00:33N 34°23' E 032°38'0 0.3
2014-Apr-16 23:34N 34°22' E 032°38'1010.0
2014-Apr-16 22:33N 34°21' E 032°26'1312.8
2014-Apr-16 21:33N 34°18' E 032°11'1312.6
2014-Apr-16 20:33N 34°14' E 031°57'  
2014-Apr-13 22:29N 36°40' E 012°36'2117.5
2014-Apr-13 21:17N 36°52' E 012°13'1317.6
2014-Apr-13 20:34N 36°58' E 011°60'1817.5
2014-Apr-13 19:33N 37°07' E 011°41'1717.3
2014-Apr-13 18:33N 37°16' E 011°23'1817.7
2014-Apr-13 17:33N 37°24' E 011°02'1917.8
2014-Apr-13 16:29N 37°29' E 010°40'1817.6
2014-Apr-13 15:28N 37°33' E 010°18'23217.7
2014-Apr-13 02:23N 37°13' E 005°27'3617.8
2014-Apr-13 00:23N 37°11' E 004°43'1518.0
2014-Apr-12 23:34N 37°11' E 004°24'2118.0
2014-Apr-12 22:24N 37°08' E 003°58'44417.8
2014-Apr-11 21:31N 35°60' W 005°08'1819.0
2014-Apr-11 20:33N 35°56' W 005°30'1817.8
2014-Apr-11 19:33N 35°54' W 005°52'2317.3
2014-Apr-11 18:13N 35°55' W 006°20'1617.8
2014-Apr-11 17:21N 35°59' W 006°39'1418.0
2014-Apr-11 16:33N 36°02' W 006°56'3618.0
2014-Apr-11 14:33N 36°13' W 007°39'4418.0
2014-Apr-11 12:07N 36°23' W 008°32'1117.8
2014-Apr-11 11:28N 36°26' W 008°46'1717.8
2014-Apr-11 10:29N 36°30' W 009°07'1917.3
2014-Apr-11 09:24N 36°40' W 009°27'1517.3
2014-Apr-11 08:32N 36°53' W 009°36'1717.7
2014-Apr-11 07:33N 37°10' W 009°40'2017.8
2014-Apr-11 06:27N 37°29' W 009°45'1618.0
2014-Apr-11 05:33N 37°45' W 009°51'1817.8
2014-Apr-11 04:33N 38°03' W 009°56'  

Dump ship's entire track history

sailing weather and tide predictions

Deva — A8OK3 — position and weather